EW9766 Weather Reports


time (UTC)temp
C
wind
direction
speed
KPH
gust
KPH
rain 1hr
cm
rain 24hr
cm
rain mn
cm
humidity
%
barometer
mb
20260508093034 6 138 8.0 14.5 0.00 0.00 0.00 58 1017.3
20260508091605 6 154 9.7 14.5 0.00 0.00 0.00 58 1017.3
20260508090031 6 165 9.7 14.5 0.00 0.00 0.00 58 1017.3
20260508084644 6 147 8.0 11.3 0.00 0.00 0.00 58 1017.3
20260508083034 6 153 8.0 14.5 0.00 0.00 0.00 58 1017.4
20260508081607 7 146 8.0 12.9 0.00 0.00 0.00 57 1017.4
20260508080037 7 152 8.0 12.9 0.00 0.00 0.00 57 1017.4
20260508074533 7 145 9.7 12.9 0.00 0.00 0.00 57 1017.4
20260508073035 7 157 9.7 14.5 0.00 0.00 0.00 58 1017.5
20260508071532 7 158 6.4 11.3 0.00 0.00 0.00 58 1017.5
20260508070030 6 151 9.7 14.5 0.00 0.00 0.00 58 1017.5
20260508064531 6 157 8.0 12.9 0.00 0.00 0.00 59 1017.6
20260508063036 6 162 6.4 11.3 0.00 0.00 0.00 59 1017.6
20260508061536 6 156 6.4 9.7 0.00 0.00 0.00 57 1017.7
20260508053031 7 171 8.0 9.7 0.00 0.00 0.00 52 1017.7
20260508051534 7 180 6.4 8.0 0.00 0.00 0.00 49 1017.7
20260508050035 8 183 4.8 8.0 0.00 0.00 0.00 45 1017.9
20260508044536 10 255 1.6 6.4 0.00 0.00 0.00 41 1017.7
20260508043106 10 358 1.6 9.7 0.00 0.00 0.00 40 1017.6
20260508041531 11 38 1.6 9.7 0.00 0.00 0.00 38 1017.5
20260508040031 12 26 4.8 11.3 0.00 0.00 0.00 38 1017.2
20260508030031 15 347 6.4 14.5 0.00 0.00 0.00 38 1016.6
20260508024534 15 326 8.0 20.9 0.00 0.00 0.00 38 1016.6
20260508023030 16 347 8.0 16.1 0.00 0.00 0.00 35 1016.5
20260508021531 17 334 4.8 14.5 0.00 0.00 0.00 32 1016.4
20260508020052 18 283 9.7 24.1 0.00 0.00 0.00 29 1016.2
20260508014531 19 291 12.9 32.2 0.00 0.00 0.00 29 1016.1
20260508013035 19 279 12.9 27.4 0.00 0.00 0.00 28 1016.2
20260508011534 20 273 16.1 40.2 0.00 0.00 0.00 26 1016.3
20260508010031 20 285 19.3 37.0 0.00 0.00 0.00 26 1016.3
20260508004647 20 279 17.7 37.0 0.00 0.00 0.00 26 1016.4
20260508001535 21 280 14.5 32.2 0.00 0.00 0.00 25 1016.5
20260508000032 22 273 12.9 35.4 0.00 0.00 0.00 24 1016.5
20260507234608 22 265 12.9 33.8 0.00 0.00 0.00 25 1016.5
20260507231528 22 266 11.3 27.4 0.00 0.00 0.00 25 1016.6
20260507230031 22 282 12.9 30.6 0.00 0.00 0.00 25 1016.7
20260507224543 22 289 11.3 32.2 0.00 0.00 0.00 25 1016.8
20260507221536 21 295 11.3 24.1 0.00 0.00 0.00 26 1017.3
20260507220033 22 268 12.9 29.0 0.00 0.00 0.00 26 1017.4
20260507213040 21 325 14.5 29.0 0.00 0.00 0.00 30 1017.4
20260507213035 20 342 16.1 38.6 0.00 0.00 0.00 32 1017.5
20260507210030 21 357 19.3 33.8 0.00 0.00 0.00 34 1017.6
20260507204535 21 359 16.1 29.0 0.00 0.00 0.00 33 1017.7
20260507203036 21 344 17.7 29.0 0.00 0.00 0.00 29 1017.9
20260507201537 21 337 14.5 30.6 0.00 0.00 0.00 29 1018.1
20260507200106 21 308 11.3 25.7 0.00 0.00 0.00 29 1018.2
20260507194607 21 294 11.3 24.1 0.00 0.00 0.00 32 1018.3
20260507191535 19 18 14.5 25.7 0.00 0.00 0.00 37 1018.6
20260507190033 18 18 14.5 24.1 0.00 0.00 0.00 38 1018.8
20260507184534 18 14 11.3 19.3 0.00 0.00 0.00 41 1019.0
20260507181537 18 53 9.7 17.7 0.00 0.00 0.00 44 1019.2
20260507180032 17 26 6.4 16.1 0.00 0.00 0.00 48 1019.4
20260507174537 16 26 9.7 17.7 0.00 0.00 0.00 51 1019.7
20260507171539 15 23 8.0 16.1 0.00 0.00 0.00 53 1019.7
20260507170034 14 35 9.7 16.1 0.00 0.00 0.00 55 1019.6
20260507164641 13 22 12.9 19.3 0.00 0.00 0.00 56 1019.6
20260507163034 13 21 14.5 22.5 0.00 0.00 0.00 58 1019.6
20260507161539 13 43 9.7 20.9 0.00 0.00 0.00 60 1019.5
20260507160032 13 38 9.7 16.1 0.00 0.00 0.00 62 1019.6
20260507154534 13 36 9.7 14.5 0.00 0.00 0.00 63 1019.5
20260507153034 13 31 6.4 11.3 0.00 0.00 0.00 65 1019.6
20260507151531 12 44 6.4 11.3 0.00 0.00 0.00 66 1019.7
20260507150048 12 13 4.8 11.3 0.00 0.00 0.00 66 1019.7
20260507144537 12 334 3.2 9.7 0.00 0.00 0.00 67 1019.7
20260507141532 11 17 3.2 6.4 0.00 0.00 0.00 72 1019.5
20260507140031 10 30 4.8 11.3 0.00 0.00 0.00 75 1019.5
20260507134537 8 67 6.4 11.3 0.00 0.00 0.00 78 1019.3
20260507133106 8 118 4.8 11.3 0.00 0.00 0.00 77 1019.3
20260507131536 9 27 6.4 14.5 0.00 0.00 0.00 77 1019.2
20260507130030 9 349 9.7 17.7 0.00 0.00 0.00 76 1019.1
20260507124531 10 350 11.3 19.3 0.00 0.00 0.00 73 1019.1
20260507123030 10 314 11.3 20.9 0.00 0.00 0.00 72 1019.0
20260507121536 10 286 9.7 25.7 0.00 0.00 0.00 72 1018.8
20260507120033 10 287 11.3 25.7 0.00 0.00 0.00 72 1018.8
20260507113034 10 261 11.3 38.6 0.00 0.00 0.00 73 1018.8
20260507111531 10 246 11.3 32.2 0.00 0.00 0.00 73 1018.8
20260507110032 11 248 12.9 35.4 0.00 0.00 0.00 72 1018.8
20260507103036 11 244 12.9 33.8 0.00 0.00 0.00 70 1019.0
20260507101531 11 266 11.3 29.0 0.00 0.00 0.00 68 1019.2
20260507100048 11 259 12.9 40.2 0.00 0.00 0.00 68 1019.2
20260507094606 11 256 12.9 38.6 0.00 0.00 0.00 68 1019.2